• Join FlightAware (Why Join?)
  • Login
  • US Flag 
02:34AM EST


 

Airport Tracker/Info


-or-


 

Live Flight TrackerFlight Track Log ✈ SNC8107 ✈ 01-May-2014 ✈ TJSJ / SJU - TIST / STT

Flight Track Log - Related Links

Times and Time Zones

All times are in EDT time to prevent confusion due to time zone crossing. See the SNC8107 flight status page for this flight to view local times or setup timezone preferences in your user account.

Time Position Orientation Groundspeed Altitude Reporting Facility
EDT Latitude Longitude Course Direction KTS MPH feet Rate Location/Type
10:39AM 18.4500 -65.9667 90° East 120 138 1,200  Level San Juan Center
10:40AM 18.4500 -65.9333 90° East 130 150 1,800 600 Climbing San Juan Center
10:41AM 18.4500 -65.8833 90° East 130 150 2,400 545 Climbing San Juan Center
10:42AM 18.4667 -65.8500 62° Northeast 120 138 2,900 545 Climbing San Juan Center
10:43AM 18.4667 -65.8167 90° East 130 150 3,500 550 Climbing San Juan Center
10:44AM 18.4500 -65.7833 118° Southeast 130 150 4,000 550 Climbing San Juan Center
10:45AM 18.4500 -65.7333 90° East 130 150 4,600 500 Climbing San Juan Center
10:46AM 18.4500 -65.7000 90° East 140 161 5,000 198 Climbing San Juan Center
10:47AM 18.4500 -65.6500 90° East 150 173 5,000  Level San Juan Center
10:48AM 18.4333 -65.6000 109° East 180 207 5,000  Level San Juan Center
10:49AM 18.4333 -65.5500 90° East 180 207 5,000  Level San Juan Center
10:50AM 18.4167 -65.5000 109° East 170 196 5,000  Level San Juan Center
10:51AM 18.4000 -65.4667 118° Southeast 170 196 5,000  Level San Juan Center
10:52AM 18.3667 -65.4167 125° Southeast 170 196 5,000 -298 Level San Juan Center
10:53AM 18.3333 -65.3667 125° Southeast 190 219 4,400 -550 Descending San Juan Center
10:54AM 18.3167 -65.3167 109° East 190 219 3,900 -450 Descending San Juan Center
10:55AM 18.3167 -65.2667 90° East 180 207 3,500 -496 Descending San Juan Center
10:56AM 18.3167 -65.2167 90° East 170 196 2,900 -347 Descending San Juan Center
10:57AM 18.3167 -65.1667 90° East 170 196 2,800 -350 Descending San Juan Center
10:58AM 18.3167 -65.1167 90° East 170 196 2,200 -397 Descending San Juan Center
10:59AM 18.3333 -65.0833 62° Northeast 140 161 2,000 -446 Descending San Juan Center
11:00AM 18.3167 -65.0500 118° Southeast 110 127 1,300 -645 Descending San Juan Center
11:01AM 18.3333 -65.0167 62° Northeast 120 138 700 -590 Descending San Juan Center